Location: Carlingford
(46.7848°N, 67.7474°W)
Time: 13:17:13
(UTC+00:00)

N. Korean satellite - Pass Details

Date: 03 December 2022
Orbit: 407 x 441 km, 97.3° (Epoch: 05 February)

Event Time Altitude Azimuth Distance (km) Brightness Sun altitude
Rises 08:43:16 0° 33° (NNE) 2,523 10.6 -32.4°
Reaches altitude 10° 08:46:32 10° 67° (ENE) 1,631 10.0 -31.9°
Maximum altitude 08:47:54 12° 89° (E) 1,513 9.9 -31.6°
Drops below altitude 10° 08:49:14 10° 112° (ESE) 1,616 10.0 -31.4°
Sets 08:52:26 0° 146° (SE) 2,469 10.6 -30.9°
